Time,TemperatureF,DewpointF,PressureIn,WindDirection,WindDirectionDegrees,WindSpeedMPH,WindSpeedGustMPH,Humidity,HourlyPrecipIn,Conditions,Clouds,dailyrainin,SoftwareType,DateUTC
2016-02-11 00:13:00,26.0,20.0,-100.00,NNE,13,1.0,4.0,77,-99.99,,,-99.99,,2016-02-11 09:13:00,
2016-02-11 00:23:00,26.0,20.0,-100.00,NNE,13,1.0,5.0,77,-99.99,,,-99.99,,2016-02-11 09:23:00,
2016-02-11 00:33:00,26.0,20.0,-100.00,NNE,13,1.0,5.0,77,-99.99,,,-99.99,,2016-02-11 09:33:00,
2016-02-11 00:46:00,26.0,20.0,-100.00,NNE,13,1.0,5.0,77,-99.99,,,-99.99,,2016-02-11 09:46:00,
2016-02-11 00:54:00,26.0,20.0,-100.00,NNE,13,1.0,5.0,77,-99.99,,,-99.99,,2016-02-11 09:54:00,
2016-02-11 01:13:00,26.0,19.0,-100.00,NNE,19,1.0,5.0,74,-99.99,,,-99.99,,2016-02-11 10:13:00,
2016-02-11 01:23:00,26.0,19.0,-100.00,NNE,19,1.0,6.0,74,-99.99,,,-99.99,,2016-02-11 10:23:00,
2016-02-11 01:34:00,26.0,19.0,-100.00,NNE,19,1.0,6.0,74,-99.99,,,-99.99,,2016-02-11 10:34:00,
2016-02-11 01:44:00,26.0,19.0,-100.00,NNE,19,1.0,6.0,74,-99.99,,,-99.99,,2016-02-11 10:44:00,
2016-02-11 02:13:00,27.0,20.0,-100.00,NE,56,2.0,4.0,74,-99.99,,,-99.99,,2016-02-11 11:13:00,
2016-02-11 02:23:00,27.0,20.0,-100.00,NE,56,2.0,5.0,74,-99.99,,,-99.99,,2016-02-11 11:23:00,
2016-02-11 02:43:00,27.0,20.0,-100.00,NE,56,2.0,5.0,74,-99.99,,,-99.99,,2016-02-11 11:43:00,
2016-02-11 02:54:00,27.0,20.0,-100.00,NE,56,2.0,5.0,74,-99.99,,,-99.99,,2016-02-11 11:54:00,
2016-02-11 03:13:00,26.0,19.0,-100.00,NE,48,1.0,3.0,76,-99.99,,,-99.99,,2016-02-11 12:13:00,
2016-02-11 03:23:00,26.0,19.0,-100.00,NE,48,1.0,3.0,76,-99.99,,,-99.99,,2016-02-11 12:23:00,
2016-02-11 03:34:00,26.0,19.0,-100.00,NE,48,1.0,3.0,76,-99.99,,,-99.99,,2016-02-11 12:34:00,
2016-02-11 03:44:00,26.0,19.0,-100.00,NE,48,1.0,3.0,76,-99.99,,,-99.99,,2016-02-11 12:44:00,
2016-02-11 03:54:00,26.0,19.0,-100.00,NE,48,1.0,3.0,76,-99.99,,,-99.99,,2016-02-11 12:54:00,
2016-02-11 04:34:00,25.0,19.0,-100.00,NNE,22,1.0,3.0,78,-99.99,,,-99.99,,2016-02-11 13:34:00,
2016-02-11 04:44:00,25.0,19.0,-100.00,NNE,22,1.0,3.0,78,-99.99,,,-99.99,,2016-02-11 13:44:00,
2016-02-11 05:33:00,26.0,21.0,-100.00,East,101,2.0,4.0,80,-99.99,,,-99.99,,2016-02-11 14:33:00,
2016-02-11 05:43:00,26.0,21.0,-100.00,East,101,2.0,4.0,80,-99.99,,,-99.99,,2016-02-11 14:43:00,
2016-02-11 05:53:00,26.0,21.0,-100.00,East,101,2.0,4.0,80,-99.99,,,-99.99,,2016-02-11 14:53:00,
2016-02-11 06:12:00,26.0,20.0,-100.00,NNE,22,2.0,4.0,78,-99.99,,,-99.99,,2016-02-11 15:12:00,
2016-02-11 10:53:00,27.0,22.0,-100.00,South,189,2.0,5.0,81,-99.99,,,-99.99,,2016-02-11 19:53:00,
2016-02-11 11:13:00,29.0,24.0,-100.00,NE,49,2.0,4.0,81,-99.99,,,-99.99,,2016-02-11 20:13:00,
2016-02-11 11:34:00,29.0,24.0,-100.00,NE,49,2.0,5.0,81,-99.99,,,-99.99,,2016-02-11 20:34:00,
2016-02-11 11:43:00,29.0,24.0,-100.00,NE,49,2.0,5.0,81,-99.99,,,-99.99,,2016-02-11 20:43:00,
2016-02-11 11:53:00,29.0,24.0,-100.00,NE,49,2.0,5.0,81,-99.99,,,-99.99,,2016-02-11 20:53:00,
2016-02-11 12:13:00,31.0,24.0,-100.00,NE,39,3.0,6.0,76,-99.99,,,-99.99,,2016-02-11 21:13:00,
2016-02-11 12:34:00,31.0,24.0,-100.00,NE,39,3.0,7.0,76,-99.99,,,-99.99,,2016-02-11 21:34:00,
2016-02-11 12:43:00,31.0,24.0,-100.00,NE,39,3.0,7.0,76,-99.99,,,-99.99,,2016-02-11 21:43:00,
2016-02-11 13:33:00,32.0,24.0,-100.00,West,277,4.0,7.0,71,-99.99,,,-99.99,,2016-02-11 22:33:00,
2016-02-11 14:33:00,34.0,24.0,-100.00,North,358,2.0,8.0,66,-99.99,,,-99.99,,2016-02-11 23:33:00,
2016-02-11 14:53:00,34.0,24.0,-100.00,North,358,2.0,8.0,66,-99.99,,,-99.99,,2016-02-11 23:53:00,
2016-02-11 15:34:00,34.0,25.0,-100.00,West,265,2.0,5.0,70,-99.99,,,-99.99,,2016-02-12 00:34:00,
2016-02-11 15:43:00,34.0,25.0,-100.00,West,265,2.0,5.0,70,-99.99,,,-99.99,,2016-02-12 00:43:00,
2016-02-11 16:13:00,33.0,25.0,-100.00,North,351,2.0,5.0,72,-99.99,,,-99.99,,2016-02-12 01:13:00,
2016-02-11 16:23:00,33.0,25.0,-100.00,North,351,2.0,6.0,72,-99.99,,,-99.99,,2016-02-12 01:23:00,
2016-02-11 16:33:00,33.0,25.0,-100.00,North,351,2.0,6.0,72,-99.99,,,-99.99,,2016-02-12 01:33:00,
2016-02-11 16:44:00,33.0,25.0,-100.00,North,351,2.0,6.0,72,-99.99,,,-99.99,,2016-02-12 01:44:00,
2016-02-11 16:53:00,33.0,25.0,-100.00,North,351,2.0,6.0,72,-99.99,,,-99.99,,2016-02-12 01:53:00,
2016-02-11 17:13:00,31.0,25.0,-100.00,North,351,2.0,4.0,79,-99.99,,,-99.99,,2016-02-12 02:13:00,
2016-02-11 17:34:00,31.0,25.0,-100.00,North,351,2.0,5.0,79,-99.99,,,-99.99,,2016-02-12 02:34:00,
2016-02-11 17:44:00,31.0,25.0,-100.00,North,351,2.0,5.0,79,-99.99,,,-99.99,,2016-02-12 02:44:00,
2016-02-11 17:53:00,31.0,25.0,-100.00,North,351,2.0,5.0,79,-99.99,,,-99.99,,2016-02-12 02:53:00,
2016-02-11 18:13:00,28.0,24.0,-100.00,NE,48,2.0,4.0,84,-99.99,,,-99.99,,2016-02-12 03:13:00,
2016-02-11 18:23:00,28.0,24.0,-100.00,NE,48,2.0,5.0,84,-99.99,,,-99.99,,2016-02-12 03:23:00,
2016-02-11 18:33:00,28.0,24.0,-100.00,NE,48,2.0,5.0,84,-99.99,,,-99.99,,2016-02-12 03:33:00,
2016-02-11 18:43:00,28.0,24.0,-100.00,NE,48,2.0,5.0,84,-99.99,,,-99.99,,2016-02-12 03:43:00,
2016-02-11 18:54:00,28.0,24.0,-100.00,NE,48,2.0,5.0,84,-99.99,,,-99.99,,2016-02-12 03:54:00,
2016-02-11 19:12:00,27.0,24.0,-100.00,SSE,166,-999.9,-999.0,87,-99.99,,,-99.99,,2016-02-12 04:12:00,
2016-02-11 19:36:00,27.0,24.0,-100.00,SSE,166,2.0,4.0,87,-99.99,,,-99.99,,2016-02-12 04:36:00,
2016-02-11 19:54:00,27.0,24.0,-100.00,SSE,166,2.0,4.0,87,-99.99,,,-99.99,,2016-02-12 04:54:00,
2016-02-11 20:33:00,27.0,24.0,-100.00,South,179,1.0,4.0,88,-99.99,,,-99.99,,2016-02-12 05:33:00,
2016-02-11 20:46:00,27.0,24.0,-100.00,South,179,1.0,4.0,88,-99.99,,,-99.99,,2016-02-12 05:46:00,